Tracking 20621 objects as of 31-Mar-2020
HD Live streaming from Space Station
objects crossing your sky now

COSMOS 2227

Track COSMOS 2227 now!
10-day predictions
COSMOS 2227 is classified as:


NORAD ID: 22284
Int'l Code: 1992-093A
Perigee: 843.7 km
Apogee: 866.7 km
Inclination: 71.0 °
Period: 101.9 minutes
Semi major axis: 7226 km
RCS: 7.0075 m2 (large)
Launch date: December 25, 1992
Source: Commonwealth of Independent States (former USSR) (CIS)
Launch site: TYURATAM MISSILE AND SPACE COMPLEX (TTMTR)
aabbcc
Your satellite tracking list
Your tracking list is empty




NASA's NSSDC Master Catalog

Two Line Element Set (TLE):
1 22284U 92093A   20090.75675207 -.00000343 +00000-0 -15717-3 0  9997
2 22284 070.9767 262.2739 0015955 072.6421 287.6444 14.13310739406146
Source of the keplerian elements: AFSPC